Location: Dal�� Lhota
(48.7500°N, 14.0167°E)
Time: 22:59:35
(UTC+00:00)

Transit 2A - Pass Details

Date: 04 August 2021
Orbit: 594 x 964 km, 66.7° (Epoch: 26 September)

Event Time Altitude Azimuth Distance (km) Brightness Sun altitude
Rises 08:44:26 0° 309° (NW) 3,024 8.7 46.8°
Maximum altitude 08:49:54 10° 360° (N) 2,237 8.3 47.5°
Drops below altitude 10° 08:50:14 10° 4° (N) 2,248 8.3 47.6°
Sets 08:55:46 0° 49° (NE) 3,305 9.4 48.3°
